Location: Burland Observatory
(39.4088°N, 105.4217°W)
Time: 22:58:25
(UTC-07:00)

SR - Pass Details

Date: 16 December 2019
Orbit: 574 x 882 km, 66.7° (Epoch: 24 January)

Event Time Altitude Azimuth Distance (km) Brightness Sun altitude
Rises 08:00:36 0° 213° (SSW) 3,226 ? 6.5°
Reaches altitude 10° 08:02:55 10° 215° (SW) 2,347 ? 6.8°
Maximum altitude 08:08:22 74° 300° (WNW) 868 ? 7.6°
Drops below altitude 10° 08:14:13 10° 26° (NNE) 2,513 ? 8.5°
Sets 08:16:46 0° 28° (NNE) 3,472 ? 8.9°
